Powrót do katalogu

STARLINK-30463

AktywnyŁącznośćVLEO
NORAD 57909·PAYLOAD·🇺🇸 United States

Wystrzelony Sep 20, 2023 z Cape Canaveral Space Force Station

Loading…

Następne Przeloty (najbliższe 24 godziny)

TLE

ŚwieżeSource: CelesTrak SupGP

Epoka: Sep 14, 2026, 22:25 UTC

1 57909C 23146U   26257.93451389 -.00019994  00000+0 -72417-3 0  2574
2 57909  43.0010 325.9850 0001513 272.3490  44.1431 15.27589270    13

Śledź STARLINK-30463 w czasie rzeczywistym z AllMySat

Download on the App Store